Regional Weather Roundup
Issued by NWS

Home | Current Version | Previous Version | Graphics & Text | Print | Product List | Glossary On
Versions: 1 2 3 4 5 6 7 8 9 10 11 12 13 14 15 16 17 18 19 20 21 22 23 24 25 26 27 28 29 30 31 32 33 34 35 36 37 38 39 40 41 42 43 44 45 46 47 48 49 50
000
ASUS43 KIND 270209
RWRIN

WEATHER ROUNDUP FOR INDIANA
NATIONAL WEATHER SERVICE INDIANAPOLIS IN
900 PM EST FRI DEC 26 2014

NOTE: "FAIR" INDICATES FEW OR NO CLOUDS BELOW 12,000 FEET WITH NO
SIGNIFICANT WEATHER AND/OR OBSTRUCTIONS TO VISIBILITY.

* - STATION DOES NOT REPORT WEATHER SUCH AS PRECIPITATION OR FOG.

+ - STATION NOT QUALITY CONTROLLED BY THE NATIONAL WEATHER SERVICE.
    USE DATA WITH CAUTION...ESPECIALLY DEWPOINT AND RELATIVE
    HUMIDITY OBSERVATIONS.

INZ001>003-010>013-019-020-270300-
NORTHWEST INDIANA

CITY           SKY/WX    TMP DP  RH WIND       PRES   REMARKS
GARY /AIRPORT/ CLOUDY    50  39  66 S8        30.05R
KNOX *+        CLOUDY    47  37  70 S9        30.07R
LA PORTE +     CLOUDY    48  42  80 S10       30.07R
MICHIGAN CITY+ CLOUDY    46  37  71 S6        30.06R
MONTICELLO +   CLOUDY    45  40  85 S5        30.07F
RENSSELAER +   MOCLDY    45  43  93 S7        30.07S
VALPARAISO     CLOUDY    47  41  80 S12       30.06R

$$

LMZ046-743>745-270300-
SOUTHERN LAKE MICHIGAN

STATION/POSITION TIME  TEMP WIND        PRES
                       AIR  DIR/SP/G
                 (UTC) (F)  (DEG/KT/KT) (MB)
MICHIGAN CITY    0200   48  170/ 11/ 14   N/A

$$

INZ004-005-014>016-021>024-270300-
NORTH CENTRAL INDIANA

CITY           SKY/WX    TMP DP  RH WIND       PRES   REMARKS
ELKHART        CLOUDY    46  37  71 S6        30.07S
GOSHEN         MOCLDY    43  39  86 S7        30.08R
LOGANSPORT +   CLOUDY    43  37  81 S7        30.09F
ROCHESTER +    MOCLDY    45  41  87 S7        30.09S
SOUTH BEND     CLOUDY    47  40  76 S8        30.08R
WARSAW +       MOCLDY    43  37  81 S3        30.09R

$$

INZ006>009-017-018-025>027-270300-
NORTHEAST INDIANA

CITY           SKY/WX    TMP DP  RH WIND       PRES   REMARKS
ANGOLA *+      CLOUDY    39  37  93 S3        30.08S
AUBURN +       CLOUDY    43  37  81 S3        30.10S
FORT WAYNE     MOCLDY    41  38  89 S8        30.11S
HUNTINGTON +   PTCLDY    42  39  89 S5        30.10S

$$

INZ028-029-035-036-043>045-051>053-270300-
WEST CENTRAL INDIANA

CITY           SKY/WX    TMP DP  RH WIND       PRES   REMARKS
GREENCASTLE +  CLOUDY    46  37  71 S8        30.11S
LAFAYETTE      CLOUDY    46  40  79 S7        30.08S
TERRE HAUTE    CLOUDY    49  41  74 S7        30.11R

$$

INZ030>032-037>040-046>048-054>057-064-065-270300-
CENTRAL INDIANA

CITY           SKY/WX    TMP DP  RH WIND       PRES   REMARKS
CP ATTERBURY + PTCLDY    45  37  76 MISG      30.14S
COLUMBUS       PTCLDY    45  37  76 S9        30.15R
FRANKFORT +    CLOUDY    43  43 100 SE6       30.11S
INDIANAPOLIS   CLOUDY    45  40  82 SE8       30.11S
-EAGLE CREEK   CLOUDY    47  40  76 S5        30.11S
KOKOMO *+      MOCLDY    39  36  87 S8        30.10S
MARION +       PTCLDY    40  37  86 S9        30.12R
MT COMFORT *+  CLOUDY    45  36  70 S6        30.13R
SHELBYVILLE    MOCLDY    45  39  79 S7        30.13R
ZIONSVILLE +   MOCLDY    46  39  78 S7        30.11S

$$

INZ033-034-041-042-049-050-058-059-270300-
EAST CENTRAL INDIANA

CITY           SKY/WX    TMP DP  RH WIND       PRES   REMARKS
MUNCIE         MOCLDY    45  38  76 MISG      30.12R

$$

INZ060-061-067>069-081>083-085>088-270300-
SOUTHWEST INDIANA

CITY           SKY/WX    TMP DP  RH WIND       PRES   REMARKS
EVANSVILLE     MOCLDY    50  40  68 S7        30.15R
HUNTINGBURG *+ CLEAR     48  37  66 S8        30.15S
WASHINGTON +   CLEAR     45  37  73 S12       30.12S

$$

INZ062-063-066-070>080-084-089>092-270300-
SOUTH CENTRAL AND SOUTHEAST INDIANA

CITY           SKY/WX    TMP DP  RH WIND       PRES   REMARKS
BLOOMINGTON    PTCLDY    46  39  76 S7        30.11F

$$



USA.gov is the U.S. government's official web portal to all federal, state and local government web resources and services.